Theta_e
300 302 302 299 298 298 297 298 298 298 298 298 301 304 304 304 304 304 305 305 308 309 308 308 309 312 315 317 318 318 317 317 317 317 319 319 318 317 317 317 318 318 318 319 319 319 319 319 320 320 320 319 319 319 319 319 319 319 319 319 318 319
300 300 299 299 300 299 298 297 296 298 297 297 298 298 298 298 300 302 303 304 304 306 305 306 307 309 312 314 316 316 317 318 317 317 317 318 317 317 317 316 317 316 316 316 317 317 318 318 319 319 318 318 318 318 318 318 318 318 318 318 319 319
298 297 296 297 296 295 296 295 297 297 296 296 296 299 299 298 299 299 302 301 302 301 303 305 305 308 310 311 314 315 316 316 316 316 317 314 316 315 315 315 315 315 315 316 315 317 317 317 317 317 317 317 317 317 317 317 316 316 317 317 316 317
299 298 297 295 296 297 298 296 295 296 296 298 296 295 297 297 298 297 299 298 300 300 301 302 302 306 307 309 311 312 313 314 314 315 313 313 315 313 314 315 315 314 314 314 315 315 315 316 316 315 315 316 316 315 316 316 315 314 314 314 314 314
301 301 300 299 297 297 295 296 296 297 295 295 294 295 297 296 298 296 296 297 298 299 299 300 301 301 303 305 307 308 310 311 310 310 312 312 312 310 313 314 313 313 312 313 313 313 313 314 314 313 314 314 315 315 314 315 314 313 312 312 313 313
298 298 297 298 296 296 298 299 298 297 295 296 293 294 295 292 293 294 296 297 298 297 297 299 298 299 300 301 302 302 303 306 306 306 308 310 309 309 308 309 310 309 309 310 310 309 309 310 309 310 311 315 313 313 314 313 312 313 313 312 313 312
296 299 299 299 298 298 299 299 299 298 298 296 296 296 293 293 292 294 294 294 296 294 294 293 292 295 295 297 295 296 296 297 298 299 303 304 304 306 304 304 303 304 305 310 310 310 307 308 309 312 311 311 310 311 312 312 312 311 312 312 313 308
299 298 297 298 298 299 299 299 298 298 296 297 296 295 295 294 292 293 292 290 293 291 290 288 289 292 292 292 291 291 292 294 298 300 299 300 306 303 302 302 300 301 304 302 306 307 308 306 304 307 309 309 308 308 309 309 310 311 312 312 312 312
296 297 297 297 297 295 299 299 298 296 295 295 294 293 293 293 291 290 290 289 290 291 290 289 289 288 289 289 290 291 292 292 292 295 296 293 298 299 299 296 297 296 299 302 303 303 303 304 302 304 306 306 306 307 307 307 308 310 310 311 312 313
296 294 295 296 297 296 298 297 296 296 295 296 293 291 291 292 289 289 288 289 291 290 291 290 289 290 291 288 288 290 290 289 289 289 288 289 292 293 294 296 299 296 295 297 297 299 298 298 300 301 301 303 303 304 305 306 308 309 311 311 312 313
296 296 295 296 296 296 296 295 292 291 291 290 291 290 290 289 288 287 288 289 291 292 289 287 290 291 289 290 289 289 289 288 288 288 288 289 289 290 289 291 292 293 294 293 293 293 294 297 299 299 299 301 303 306 308 309 309 309 309 310 311 312
298 297 297 296 296 297 296 294 292 290 294 293 290 290 290 287 288 288 288 290 291 290 288 289 288 287 287 289 289 288 287 287 287 287 287 288 287 288 288 287 288 290 291 291 291 291 293 295 298 297 296 295 299 303 305 305 305 306 307 307 308 309
298 298 297 298 297 298 298 296 294 291 291 291 290 289 290 286 287 287 288 291 290 289 288 287 288 286 288 287 287 287 288 287 287 287 287 286 286 287 286 287 289 288 289 290 290 290 291 293 296 294 296 296 296 296 299 300 301 301 302 303 304 305
298 298 299 299 298 296 295 295 292 291 293 290 290 290 287 287 288 289 288 288 287 287 287 287 286 287 286 286 286 286 286 286 286 287 286 286 287 286 285 286 287 287 287 289 288 288 289 290 292 294 295 295 296 295 296 297 298 298 298 298 300 301
299 299 300 299 298 296 296 295 292 293 292 290 290 288 288 288 288 288 288 286 287 286 286 285 287 286 285 285 285 285 284 285 285 286 286 287 286 285 286 286 286 286 285 286 287 287 288 289 291 293 294 294 295 295 294 294 295 296 296 297 298 299
298 299 300 300 298 297 295 293 294 293 290 290 288 290 289 290 287 289 288 287 287 285 285 285 285 286 286 284 284 283 284 284 285 284 284 285 285 285 285 285 285 285 285 285 285 286 286 287 290 292 293 293 294 294 294 292 292 294 295 296 297 298
299 299 297 296 295 292 290 288 287 288 288 288 289 288 289 288 289 287 287 287 285 285 285 285 284 286 285 283 282 283 283 284 283 284 285 285 284 285 285 285 285 285 285 285 284 284 285 287 290 291 292 293 294 294 293 289 290 292 294 295 295 296
299 299 298 295 292 291 292 292 290 291 290 287 290 288 288 288 288 287 286 286 285 286 285 285 284 285 284 284 283 284 284 283 283 283 284 282 282 283 283 283 283 284 284 284 284 284 285 286 289 290 291 292 293 294 291 289 289 291 292 293 294 295
298 298 295 293 293 292 292 292 291 292 290 290 288 289 288 288 288 287 286 287 286 285 284 283 284 285 284 284 283 283 284 284 284 283 282 283 283 283 282 283 283 283 283 284 284 284 285 285 287 289 290 291 293 292 287 287 288 290 291 292 292 294
294 292 294 292 291 292 292 290 291 291 291 290 289 289 288 288 288 286 286 287 285 286 285 284 284 284 284 283 284 284 283 282 281 280 280 283 282 283 284 283 284 283 283 283 284 284 284 285 286 288 290 291 292 291 287 287 288 289 290 291 291 292
295 293 292 291 290 289 289 289 290 290 290 289 288 288 288 287 286 285 286 286 285 284 284 284 284 284 284 283 283 283 283 282 282 281 281 281 281 282 282 281 283 283 282 282 283 283 284 285 286 288 289 290 291 289 286 287 288 288 289 289 289 288
292 290 291 291 291 289 288 289 289 289 288 287 287 287 286 286 286 284 283 283 283 282 282 282 283 282 282 282 282 280 282 281 281 281 281 281 281 283 283 282 282 283 284 282 282 283 284 284 285 286 289 290 290 291 287 285 287 287 288 287 287 287
294 292 291 291 290 289 288 289 289 288 287 286 287 286 286 285 283 283 284 283 282 282 282 282 282 283 281 280 281 280 280 280 281 281 281 282 283 281 282 283 283 283 284 284 283 283 284 285 285 286 288 289 290 291 290 285 287 287 287 287 287 288
290 289 288 289 289 288 288 288 288 287 286 286 286 286 285 284 283 284 283 283 282 282 281 281 281 279 280 280 280 279 280 280 278 279 280 281 280 281 282 281 283 283 284 284 283 283 284 285 285 285 287 289 290 290 291 287 286 287 287 287 287 287
288 288 288 287 287 286 286 287 286 285 285 286 286 285 283 284 284 284 283 283 282 280 280 280 279 280 279 279 279 279 279 279 278 278 278 279 279 280 281 282 283 284 284 284 285 284 284 284 284 285 285 287 289 290 291 291 289 290 287 286 286 287
287 286 284 285 285 285 285 287 286 285 285 285 284 282 282 283 283 283 283 281 282 281 280 280 279 279 279 279 279 279 279 280 279 279 279 279 279 281 282 282 282 283 283 284 285 284 283 284 284 284 285 286 288 290 291 291 291 291 288 286 286 287
285 284 283 283 284 284 284 286 286 284 285 284 282 283 283 283 282 282 281 281 280 280 279 278 278 278 278 279 280 280 280 280 279 282 281 279 281 281 282 283 282 283 283 284 284 285 283 283 282 283 284 286 286 289 290 290 290 291 291 288 287 287
284 284 283 282 282 283 283 284 285 284 285 283 282 283 283 282 281 280 280 279 278 278 277 279 278 278 278 278 279 279 280 279 280 281 282 280 282 282 283 283 283 283 283 283 284 284 285 284 283 284 283 284 284 285 287 288 288 287 287 287 287 287
284 284 284 283 282 282 282 282 283 284 283 282 282 282 281 281 281 280 278 279 277 277 277 278 278 278 277 277 278 279 279 280 280 279 280 280 281 282 282 282 282 282 282 283 283 283 284 284 281 282 282 283 281 282 283 282 284 285 285 285 285 286
283 282 283 283 282 282 281 282 281 281 280 280 279 280 280 279 279 279 278 277 277 278 277 277 280 280 277 278 278 279 280 279 278 280 280 280 281 281 282 282 282 282 282 282 283 283 284 284 281 280 281 281 277 279 282 283 284 284 284 284 284 285
282 282 282 282 281 281 281 280 279 279 279 279 278 279 279 279 278 277 276 276 276 277 277 277 277 277 277 278 278 278 280 280 281 282 282 282 282 283 283 282 283 283 282 283 283 283 283 284 284 279 284 284 287 287 286 286 285 285 285 286 288 287
281 280 280 279 279 279 280 280 280 279 279 278 277 278 279 278 277 277 277 276 276 276 276 276 276 276 277 277 278 279 279 281 283 284 283 283 283 284 286 286 284 284 282 283 284 283 284 284 285 288 289 288 288 289 289 288 289 289 288 288 289 288
279 279 279 279 279 280 279 280 279 280 279 278 278 278 278 278 278 278 277 277 277 277 276 276 276 275 275 276 276 277 278 279 280 285 286 285 284 285 286 286 287 287 287 286 284 285 287 287 288 288 288 288 288 288 288 289 289 289 289 289 287 286
278 278 278 278 278 278 279 279 278 277 277 277 276 276 277 277 276 277 277 277 276 277 278 276 276 276 275 275 275 276 277 278 279 279 283 285 285 285 286 286 286 286 287 287 286 285 284 286 287 287 287 287 287 287 288 288 288 289 289 289 289 286
277 277 277 277 277 277 277 277 276 275 275 275 275 275 275 275 275 274 274 275 276 277 277 277 276 275 275 274 274 275 275 277 277 277 278 280 284 284 285 285 285 286 286 286 286 287 286 286 286 287 287 287 287 287 287 288 288 289 289 289 286 284
275 276 276 275 275 275 275 274 273 272 272 272 272 272 272 271 271 272 274 275 276 276 275 276 275 275 274 275 276 275 276 276 277 277 277 277 277 278 281 283 284 284 285 285 286 286 286 286 286 286 286 286 286 287 287 287 287 289 289 288 285 284
274 274 275 274 273 272 272 272 271 270 270 269 269 269 270 270 270 271 275 276 276 274 274 273 273 274 274 275 275 275 275 275 276 276 276 275 275 275 276 276 276 281 283 282 283 284 284 285 285 286 286 286 287 287 287 288 285 284 283 283 284 284
272 271 271 271 270 269 269 269 270 270 269 268 267 268 269 270 269 270 270 271 272 272 271 271 272 273 273 273 273 274 275 275 275 275 275 275 276 275 275 276 276 275 279 281 282 283 284 284 285 285 285 285 285 285 286 283 283 283 283 284 284 285
Wind_Speed
5 6 7 4 2 1 2 1 0 1 2 4 4 6 6 6 5 5 5 5 5 6 7 7 8 8 8 8 9 8 9 10 9 9 10 8 8 7 7 8 8 8 8 9 9 8 9 10 10 10 10 9 9 10 10 10 9 9 11 11 10 10
6 6 5 4 4 3 2 2 0 3 4 4 5 4 3 3 5 5 6 6 5 6 4 5 5 6 7 7 8 8 9 9 8 8 8 9 7 8 8 7 8 7 7 7 8 8 9 9 10 9 8 8 9 10 10 10 9 11 12 12 10 9
5 5 5 5 5 3 2 4 5 5 3 4 4 5 5 5 6 4 6 4 5 4 5 5 4 6 6 6 7 8 8 7 7 7 8 5 7 6 6 7 7 7 7 8 8 9 9 9 9 8 8 9 10 10 10 10 9 11 12 11 12 11
6 6 5 4 5 3 3 3 2 3 4 5 4 3 4 4 4 4 4 4 4 5 5 5 4 4 4 5 5 6 6 6 7 7 6 7 7 6 7 8 7 6 7 7 8 8 8 7 8 7 7 9 10 10 9 9 10 10 11 9 12 10
10 11 10 8 7 5 4 3 4 5 5 4 3 2 5 4 4 3 3 3 3 4 4 4 4 4 4 4 4 5 6 6 5 5 6 6 6 5 6 7 6 6 6 7 7 7 7 7 7 6 8 9 10 11 9 9 9 10 11 11 12 11
8 7 6 6 5 5 6 6 6 5 5 5 4 4 5 3 3 2 1 2 3 2 2 2 2 2 2 3 3 4 4 4 4 4 5 5 5 5 5 5 5 5 6 6 5 5 5 5 5 6 7 9 9 9 10 9 9 9 10 11 11 10
8 9 9 8 7 6 6 6 6 6 6 4 4 4 3 3 2 1 1 0 0 1 1 2 2 2 2 2 2 3 3 3 3 2 3 2 3 4 3 3 3 4 5 6 5 5 5 6 6 7 7 7 7 8 9 9 8 9 10 10 11 11
11 9 8 7 7 7 6 5 6 6 5 5 4 4 2 1 0 0 0 1 0 1 2 2 2 2 2 2 2 2 2 1 1 1 1 2 3 1 1 2 2 3 4 4 5 5 6 5 5 6 7 6 6 6 7 7 8 9 9 10 10 10
9 9 7 6 6 6 6 6 7 6 5 5 4 3 2 1 1 2 2 2 2 1 2 2 3 2 3 3 2 1 2 2 2 2 2 2 0 0 1 1 2 1 2 2 1 2 2 3 3 4 5 5 5 6 6 7 8 9 9 10 10 10
9 8 8 7 7 7 6 6 6 6 6 6 4 3 2 2 3 3 3 2 1 1 2 1 1 1 1 1 0 1 2 3 3 3 2 2 3 2 2 2 2 2 1 1 1 1 2 2 3 4 4 4 4 5 6 6 7 8 9 10 10 10
9 9 8 9 7 8 8 7 5 2 2 3 5 4 4 4 4 4 4 3 2 0 0 1 1 0 2 2 3 4 4 4 3 3 4 4 3 3 2 3 3 3 3 3 2 3 2 1 3 3 3 4 4 4 5 6 7 8 9 9 10 10
10 9 9 8 10 10 8 6 5 5 6 6 5 5 4 3 3 4 4 3 2 1 0 0 1 3 3 4 4 3 3 3 3 3 4 3 3 3 2 3 3 3 2 3 3 3 3 3 3 4 7 5 4 4 5 6 6 7 8 8 9 10
10 9 10 11 11 11 10 8 6 5 5 6 5 5 5 4 4 4 4 3 1 0 1 3 3 3 4 3 4 4 4 3 3 3 3 4 4 4 3 3 3 3 1 1 1 3 3 4 5 8 7 8 8 5 5 6 7 7 8 9 10 11
12 12 13 13 10 8 8 7 6 6 7 6 5 5 4 4 5 5 4 3 3 4 4 4 4 4 3 4 4 3 2 2 3 3 3 3 4 3 3 3 3 3 2 1 1 3 4 5 7 8 9 9 9 7 5 5 6 6 6 7 8 10
14 14 13 9 9 10 10 10 9 9 8 7 6 5 5 5 5 5 5 4 5 4 4 4 5 4 4 3 2 2 3 3 3 3 3 3 2 1 2 3 2 3 3 2 3 4 5 6 8 9 10 10 10 10 8 5 6 6 7 7 9 9
9 9 10 12 12 12 11 10 11 9 6 7 5 6 5 6 5 5 5 5 5 4 4 4 4 4 2 1 2 2 3 3 3 2 2 1 1 2 2 1 2 2 2 2 3 4 5 6 8 10 11 11 11 10 8 5 6 6 7 8 9 9
8 7 8 9 11 8 9 6 5 6 5 6 6 5 7 5 6 5 5 5 4 4 4 4 4 3 2 3 3 3 3 3 3 4 4 4 3 4 4 5 5 4 4 3 3 4 5 7 9 10 11 12 13 13 8 4 4 5 7 7 8 8
10 12 12 6 7 8 8 10 8 9 8 5 7 6 6 6 6 5 5 5 4 4 3 4 3 2 2 2 3 3 3 4 3 4 4 3 3 3 2 3 2 3 4 3 3 4 6 6 9 9 10 11 11 12 7 5 5 6 7 8 7 7
10 10 9 9 10 11 10 10 10 10 9 8 6 7 6 6 6 5 5 5 4 4 3 3 3 2 2 1 2 2 2 2 3 3 1 2 3 3 3 3 3 3 4 4 3 4 6 7 8 8 10 10 11 8 4 4 5 6 8 9 7 7
6 5 11 12 10 10 9 10 10 10 10 9 7 8 6 6 5 4 4 4 4 4 4 3 3 3 1 1 1 0 1 1 2 2 1 1 3 3 3 3 5 4 3 4 5 4 5 7 9 10 10 11 12 8 5 4 5 7 7 8 6 6
10 11 8 11 12 9 9 10 10 11 10 8 8 7 7 6 5 4 4 4 4 3 3 3 3 2 1 1 1 0 1 2 2 2 1 2 2 4 3 2 4 4 3 3 4 6 6 7 9 10 11 11 11 7 4 4 5 7 8 7 7 4
8 6 10 12 12 10 10 9 10 10 10 7 7 7 6 5 5 4 4 4 4 3 3 3 3 3 2 2 3 2 2 2 2 3 3 3 2 4 4 4 3 5 5 4 3 4 5 6 8 7 11 10 10 10 5 3 4 8 9 6 6 8
14 17 16 11 10 9 9 10 11 9 8 8 8 7 6 5 4 4 5 4 4 3 2 1 1 0 1 1 2 2 3 3 4 4 4 4 4 4 5 5 5 5 6 4 4 4 5 6 6 9 11 10 10 10 8 5 6 7 7 8 7 6
7 7 6 7 9 8 9 10 11 9 9 8 8 7 5 5 5 6 5 5 4 3 2 1 0 0 0 0 1 2 3 3 3 3 4 4 4 5 5 5 5 6 7 5 4 4 6 6 8 6 11 11 10 9 10 6 7 7 6 8 8 7
11 10 10 7 7 6 7 10 11 9 8 9 7 6 5 5 6 5 5 5 4 3 2 1 1 0 1 1 1 1 2 2 2 4 3 4 4 4 5 6 6 6 7 7 4 5 5 5 5 8 7 11 11 10 10 11 9 9 6 7 10 9
10 10 6 6 6 6 6 10 10 8 9 8 5 5 5 5 5 5 5 4 4 2 1 1 0 0 0 0 0 0 1 4 3 3 3 3 3 5 6 6 5 6 6 7 7 4 4 4 5 6 9 10 12 11 10 10 11 11 7 7 8 9
13 11 8 5 6 5 6 6 11 9 8 5 5 6 6 5 5 4 4 3 2 1 0 0 1 1 1 1 1 2 3 4 3 5 4 3 5 4 5 6 5 6 7 8 9 7 2 3 3 5 7 11 12 12 11 11 11 11 11 8 8 7
12 12 11 6 5 5 5 6 8 10 6 4 4 5 5 5 5 4 4 3 3 2 1 0 1 1 1 1 0 1 2 2 3 4 5 6 6 6 6 7 6 6 7 9 9 9 8 4 3 5 5 6 7 7 9 10 10 11 12 11 10 13
12 12 11 10 5 6 5 5 5 6 6 5 4 4 5 5 5 4 3 3 3 1 1 1 2 2 2 2 2 1 2 2 2 3 4 5 6 6 6 7 6 6 7 8 8 9 9 7 4 6 5 6 6 6 5 5 7 8 8 8 8 9
11 11 10 9 6 6 6 6 5 3 4 4 4 4 5 5 4 4 3 2 2 2 1 2 3 2 2 3 2 3 4 3 3 3 5 5 6 6 7 6 6 6 7 8 8 8 9 9 3 3 6 6 4 5 7 7 8 8 7 8 8 8
10 9 10 7 5 6 6 5 5 4 5 4 4 5 5 4 3 3 2 2 2 3 2 3 2 2 2 3 3 3 4 5 5 6 6 5 6 7 7 7 8 7 7 7 8 8 11 11 8 4 6 3 7 10 10 9 8 8 9 9 12 11
10 9 9 6 5 6 7 6 6 5 4 4 3 3 3 2 2 2 1 1 2 3 2 1 1 1 1 3 4 5 5 6 9 8 7 8 8 13 14 12 9 8 6 8 8 6 10 12 11 10 15 17 16 16 17 16 16 14 13 14 16 11
9 10 9 7 7 7 7 6 6 6 6 6 5 5 4 2 1 0 1 1 1 1 1 1 1 2 2 3 3 4 6 7 4 10 15 15 14 13 14 15 16 16 15 11 11 8 13 17 19 19 18 18 17 16 17 17 17 17 17 17 12 9
8 9 7 6 7 6 6 7 7 7 7 7 6 5 5 4 3 2 1 1 1 1 1 1 1 2 2 3 3 4 5 5 8 5 8 11 12 12 13 13 14 14 14 16 15 13 10 11 15 18 18 18 19 18 18 19 19 18 17 17 14 10
6 6 6 6 6 6 6 8 7 6 7 6 6 5 6 5 5 4 2 1 1 1 1 1 1 2 2 3 3 3 3 5 6 10 12 4 7 12 13 13 14 15 15 16 16 17 16 16 16 19 20 20 19 19 18 19 20 18 17 15 10 9
6 6 6 6 6 7 7 8 6 5 5 5 4 4 4 4 3 2 1 1 1 1 1 1 1 1 2 2 3 3 5 4 5 7 7 12 14 7 6 8 9 9 10 10 12 13 14 16 18 19 20 20 19 19 18 18 16 16 15 12 11 9
7 7 8 7 6 6 6 6 4 3 4 4 3 4 4 3 3 2 2 3 2 1 2 2 3 3 3 3 4 4 4 5 5 5 8 8 9 12 14 10 4 6 9 9 8 12 16 18 18 18 17 17 16 16 17 19 13 11 6 5 7 8
7 6 6 5 5 4 4 3 3 4 4 3 3 4 4 3 3 3 3 2 3 3 3 3 3 3 3 4 4 3 4 5 5 7 7 7 8 10 12 13 8 3 6 12 13 14 16 16 16 16 17 17 19 19 19 13 11 10 9 8 6 7
Wind_Direction
216 188 190 200 198 195 208 254 284 182 214 210 201 219 220 223 219 225 234 220 226 223 224 222 224 224 227 227 228 224 222 226 223 219 225 228 224 219 223 216 218 216 217 217 223 219 220 221 224 223 224 220 228 232 238 237 232 235 241 241 237 243
193 174 163 159 177 183 215 222 219 239 238 216 230 248 252 243 228 216 225 222 217 234 238 240 233 234 229 228 223 223 224 228 223 222 225 227 220 222 220 218 220 218 217 215 218 220 218 220 223 221 221 219 227 230 233 235 227 232 239 242 235 239
188 184 181 176 167 162 183 189 200 217 220 225 227 220 237 237 239 226 235 218 222 224 236 243 241 243 238 238 228 227 230 229 224 223 225 222 226 218 218 220 221 217 214 215 217 218 219 218 221 213 212 218 227 229 230 233 226 231 239 240 244 240
181 183 177 152 145 174 207 234 229 258 243 234 242 248 254 250 265 235 242 228 229 219 229 233 236 241 241 235 234 230 232 228 222 221 219 220 227 204 216 220 221 214 212 213 218 220 220 219 217 209 207 221 229 234 228 231 229 234 242 238 247 243
180 178 176 173 171 182 199 223 214 224 235 248 252 227 258 233 249 250 239 238 232 241 236 233 235 228 233 230 238 232 232 232 229 222 218 222 226 214 211 220 216 215 210 215 220 218 217 216 214 208 210 221 226 232 234 231 229 234 239 240 244 245
175 165 167 169 173 187 200 202 207 217 222 219 204 210 245 265 249 247 226 231 242 277 313 284 303 288 266 235 248 241 246 247 244 231 221 225 221 219 225 216 217 206 209 216 222 217 219 217 217 218 218 224 225 232 237 235 233 236 239 243 247 246
171 182 182 179 183 194 197 199 204 209 222 210 207 224 230 247 267 216 155 140 281 350 15 331 1 352 342 297 297 258 268 278 280 296 255 273 258 245 244 249 224 216 213 218 219 220 216 220 218 223 229 231 231 233 239 241 239 238 242 244 245 246
186 186 186 184 185 187 193 199 205 212 214 216 199 203 223 226 112 107 83 45 45 359 358 336 345 347 310 297 298 290 283 257 212 229 236 180 211 245 146 211 240 213 229 226 227 219 226 226 222 228 236 238 235 237 242 246 245 247 247 247 247 247
187 193 188 186 188 192 195 194 205 209 204 219 210 199 189 193 106 77 81 59 73 26 348 331 328 317 321 323 313 319 32 34 31 40 39 11 177 187 256 270 237 268 234 268 311 301 284 271 251 248 251 255 253 249 248 248 249 252 251 253 253 253
190 190 191 189 198 200 201 205 201 196 190 198 197 186 182 174 118 94 85 73 39 19 320 316 306 324 324 299 306 57 47 42 41 36 29 73 67 62 50 37 6 344 48 338 354 322 347 314 288 274 269 264 261 262 258 254 257 260 260 259 258 255
191 194 193 195 194 195 201 203 211 207 205 189 173 168 192 178 133 127 122 117 109 179 266 287 314 25 50 59 50 37 24 24 33 31 44 53 52 56 53 55 56 26 4 13 30 2 355 326 277 265 264 272 275 260 266 264 262 262 264 265 263 261
194 197 194 192 192 195 193 190 186 181 167 173 178 174 196 143 146 130 122 121 164 208 239 173 37 34 39 39 30 17 16 37 27 38 38 34 28 41 43 34 39 50 34 3 347 352 340 304 273 264 270 271 269 286 291 291 281 279 278 279 278 274
199 199 197 197 193 193 184 178 178 170 166 169 174 177 187 157 137 120 126 126 171 53 66 71 51 52 46 19 29 18 22 11 16 31 26 8 7 13 10 28 19 13 20 14 326 308 294 274 264 263 269 274 271 269 275 272 276 273 274 274 276 275
200 199 200 200 190 178 170 168 167 159 176 179 180 184 164 147 137 132 130 127 105 89 89 89 82 69 49 43 30 20 12 28 38 35 14 3 358 353 7 9 346 326 325 321 301 271 265 270 269 276 283 280 278 269 263 266 271 274 271 274 272 273
200 199 199 190 176 178 183 165 156 177 179 173 187 157 146 137 132 124 121 127 109 104 102 97 92 88 62 39 29 24 43 44 44 23 4 345 327 356 358 319 325 306 313 312 292 288 283 279 279 277 276 277 279 279 273 267 265 268 272 272 271 274
200 198 191 187 186 181 169 166 167 175 170 166 161 147 143 131 132 125 129 116 114 116 113 110 107 95 84 51 46 48 45 42 15 328 310 322 354 13 337 316 296 281 275 252 252 268 280 280 289 293 292 289 282 274 265 260 261 263 266 267 270 274
190 186 188 191 178 161 141 147 138 139 149 159 144 143 136 135 133 132 136 127 136 118 112 107 101 90 54 37 36 36 29 15 358 354 343 356 348 352 338 330 331 321 315 306 286 277 278 274 276 276 278 283 290 293 286 266 265 268 267 268 267 272
189 191 196 172 144 152 156 157 158 150 162 155 142 142 139 139 134 143 134 129 131 120 126 111 101 85 54 45 36 36 9 353 347 334 326 354 345 339 337 315 281 281 297 282 276 274 277 274 268 269 270 272 274 279 289 295 288 280 277 274 273 272
194 191 167 166 166 157 166 159 157 149 144 140 146 137 143 137 141 152 147 142 139 131 136 121 111 94 74 59 52 26 349 336 326 314 297 341 313 312 307 279 270 267 279 290 281 277 283 289 286 282 277 274 272 277 273 275 277 273 271 270 272 276
179 164 163 159 167 166 155 158 153 146 142 144 145 141 142 140 152 158 141 139 135 129 131 132 117 116 122 115 76 244 277 266 265 261 244 265 285 296 277 278 291 280 265 272 281 266 276 284 288 288 284 277 273 266 264 265 272 274 271 276 269 269
176 168 164 156 157 173 162 154 146 138 142 144 143 138 138 147 159 154 143 142 136 119 107 110 99 105 102 78 309 229 295 286 276 269 248 257 262 271 280 280 281 290 275 247 252 272 268 277 285 283 275 273 269 266 256 257 267 278 275 278 281 257
132 149 167 168 169 159 153 145 137 136 138 143 135 135 145 162 174 175 141 120 105 85 60 60 51 29 23 351 324 337 306 293 319 311 314 303 276 293 305 301 290 293 294 277 255 258 255 273 282 279 272 268 266 260 242 228 247 267 276 277 281 298
173 173 173 166 150 149 146 138 131 134 139 140 137 146 165 170 155 135 138 132 126 122 116 121 133 109 314 275 285 312 322 324 321 320 331 322 324 328 320 317 312 304 298 292 277 262 267 254 268 281 273 267 260 257 247 224 234 253 268 280 283 274
149 127 119 137 145 144 142 135 130 136 141 140 147 165 159 144 145 141 137 140 139 142 142 147 244 206 211 286 319 338 318 314 316 308 309 317 321 321 312 306 305 304 299 295 276 262 265 266 255 266 288 286 276 268 255 239 242 237 259 277 274 269
147 147 142 141 136 133 132 128 130 137 141 139 160 154 149 151 143 143 140 138 137 149 155 175 166 203 182 176 190 213 280 293 315 301 306 302 307 304 301 302 302 304 302 300 281 259 254 259 263 252 262 279 277 266 261 250 251 253 243 255 274 272
128 125 122 119 119 119 126 129 133 140 137 149 156 137 138 132 139 132 131 135 142 144 162 176 212 225 197 176 164 349 308 321 320 304 291 284 282 294 297 292 292 296 298 299 298 265 251 257 243 257 252 262 272 275 269 268 265 263 251 245 259 272
132 122 111 108 111 115 121 130 131 133 132 153 130 144 136 135 124 118 127 144 153 170 249 350 330 323 320 327 76 357 339 329 339 333 318 324 309 294 293 291 297 300 300 302 300 297 252 249 250 251 258 262 272 277 280 278 276 274 271 268 263 260
118 118 116 107 110 111 112 116 121 122 140 132 139 142 136 131 127 133 163 174 193 216 191 288 314 309 284 302 277 237 267 281 304 310 306 316 305 302 298 299 306 305 303 300 302 304 308 313 296 278 273 276 278 284 284 284 286 282 276 268 272 272
123 125 124 119 119 112 114 113 97 107 123 134 149 137 135 137 138 143 149 187 221 244 171 213 277 302 324 328 324 306 274 270 277 282 291 290 292 293 290 288 293 293 292 291 294 300 302 306 299 282 280 277 281 283 288 302 294 285 284 285 276 279
123 123 119 117 115 102 103 101 95 95 99 112 139 140 130 128 139 146 176 207 205 243 226 221 250 249 275 280 284 301 306 280 252 264 265 274 273 281 284 283 279 277 282 286 294 299 298 296 271 248 273 271 264 287 293 291 293 290 284 284 280 272
116 119 114 116 109 100 89 77 63 59 75 113 146 143 127 132 145 149 178 193 175 236 227 213 223 236 267 293 303 271 252 274 285 270 264 234 234 242 257 269 263 262 260 265 278 289 293 291 291 249 223 248 292 300 299 299 292 293 290 276 281 290
116 110 103 94 92 87 85 75 67 64 64 79 95 105 95 114 124 138 217 194 199 234 238 239 245 256 269 282 288 298 290 239 243 252 262 275 248 247 245 242 254 249 249 266 256 230 262 279 284 294 294 293 291 288 284 282 283 282 282 284 287 285
102 100 95 96 91 88 84 76 58 49 40 48 45 53 72 98 111 150 253 256 262 250 232 218 247 264 264 267 278 286 291 302 266 247 252 253 258 257 254 258 256 260 262 261 278 262 248 268 281 289 291 290 288 286 286 288 287 290 290 292 299 291
92 93 99 90 86 84 82 73 55 50 41 39 38 46 65 68 88 83 0 11 310 304 270 244 244 271 271 280 270 274 289 293 303 279 225 252 267 262 265 262 261 262 265 266 267 276 284 271 274 283 285 287 289 289 289 289 290 289 290 289 289 285
80 80 77 77 77 75 75 74 60 51 46 38 36 41 53 55 61 66 32 13 325 308 287 276 272 268 266 276 282 288 296 310 319 320 317 272 252 275 276 270 267 267 266 267 269 271 272 279 285 285 288 289 290 291 291 289 288 287 285 290 284 265
75 69 67 67 67 73 72 71 59 47 39 34 36 49 62 63 70 80 76 14 327 318 283 287 293 303 309 305 318 317 322 321 317 312 307 314 320 302 252 252 268 274 277 277 278 281 287 289 288 287 286 287 290 293 295 295 291 288 282 267 265 267
72 66 61 61 59 60 63 69 60 48 34 38 42 59 69 70 73 80 69 28 21 16 347 339 341 336 329 336 331 327 319 310 309 300 303 307 305 305 308 307 281 269 274 284 291 290 286 284 282 283 285 291 296 302 305 303 297 295 284 241 238 254
63 60 53 54 60 54 57 47 43 25 22 32 47 58 55 52 46 39 33 11 10 355 351 342 332 332 327 320 312 308 303 307 305 301 298 292 288 294 299 298 290 264 290 292 287 285 290 296 305 309 309 307 305 304 304 299 294 292 285 278 259 255